www.pogodaiklimat.ru
ПОГОДА в Самуи
Время
(UTC), дата
12 28.06
15 28.06
18 28.06
21 28.06
00 29.06
03 29.06
06 29.06
09 29.06
12 29.06
15 29.06
18 29.06
21 29.06
00 30.06
03 30.06
06 30.06
09 30.06
12 30.06
15 30.06
18 30.06
21 30.06
00 1.07
03 1.07
06 1.07
09 1.07
12 1.07
15 1.07
18 1.07
21 1.07
00 2.07
03 2.07
06 2.07
09 2.07
12 2.07
15 2.07
18 2.07
21 2.07
00 3.07
03 3.07
06 3.07
09 3.07
12 3.07
15 3.07
18 3.07
21 3.07
00 4.07
03 4.07
06 4.07
09 4.07
12 4.07
15 4.07
18 4.07
21 4.07
00 5.07
03 5.07
06 5.07
09 5.07
Ветер
(напр.,м/с)
Видим. Явления Облачность Т
(С)
Тd
(С)
f
(%)
Тe
(С)
Тes
(С)
Комфортность P
(гПа)
Po
(гПа)
Тmin
(С)
Tmax
(С)
R
(мм)
R24
(мм)
S
(см)
З 6 10 км 8/1 600 м
[Cu med, cong Ac lent Cs]
+28.3 +24.0 78 +39 +39 очень
душно
1007.2 1006.5 +32.2 1.5
ЮЗ 5 10 км {дождь} 8/1 600 м
[Cu med, cong Ac lent Cs]
+28.2 +24.9 82 +40 +40 очень
душно
1008.8 1008.1 0.0
штиль 0 9000 м слаб. дождь 8/1 600 м
[Cu hum Ac As Cs]
+27.3 +25.9 92 +41 +41 опасность
перегрева
1008.9 1008.2 0.8 2.3
штиль 0 10 км {дождь} 8/1 600 м
[Cu hum Ac lent Cs]
+27.0 +25.3 90 +39 +39 очень
душно
1007.8 1007.1 0.2
штиль 0 10 км {дождь} 8/1 600 м
[Cu hum Ac lent Cs]
+27.0 +25.7 93 +40 +41 очень
душно
1007.9 1007.3 +25.7 3 2.5
ЮЗ 3 10 км 8/1 600 м
[Cu hum Ac lent Cs]
+29.0 +25.9 83 +43 +50 опасность
перегрева
1009.3 1008.6
штиль 0 10 км 8/1 600 м
[Cu hum Ac lent Cs]
+29.7 +25.6 79 +44 +59 опасность
перегрева
1008.8 1008.1 1.0
ЮВ 3 10 км 8/3 600 м
[Cu med, cong Ac lent Cs]
+29.5 +25.2 78 +43 +46 опасность
перегрева
1006.9 1006.3
штиль 0 10 км 8/1 600 м
[Cu hum Ac lent Cs]
+28.5 +25.5 84 +42 +42 опасность
перегрева
1007.1 1006.4 +30.1 1.0
штиль 0 10 км 8/1 600 м
[Cu med, cong Ac lent Cs]
+27.5 +25.9 91 +41 +41 опасность
перегрева
1009.6 1008.9
штиль 0 10 км 8/1 600 м
[Cu hum Ac lent Cs]
+26.5 +25.1 92 +38 +38 очень
душно
1009.1 1008.4 0.2
штиль 0 10 км {дождь} 8/1 600 м
[Cu hum Ac lent Cs]
+26.3 +25.1 93 +38 +38 очень
душно
1008.1 1007.5 0.2
штиль 0 10 км {дождь} 9/1 600 м
[Cu hum Ac lent Cs]
+26.5 +25.4 94 +39 +39 очень
душно
1009.1 1008.4 +25.4 0.2 0.2
штиль 0 10 км 9/1 600 м
[Cu hum Ac lent Cs]
+29.4 +25.3 79 +43 +53 опасность
перегрева
1009.7 1009.0
Ю 3 10 км 8/1 600 м
[Cu hum Ac lent Cs]
+31.1 +24.2 67 +43 +53 опасность
перегрева
1008.5 1007.9 0.2
ЮВ 3 10 км 8/1 600 м
[Cu med, cong Ac lent Cs]
+31.5 +24.2 65 +43 +47 опасность
перегрева
1007.1 1006.5
штиль 0 10 км 8/1 600 м
[Cb cap Ac trans Cs]
+29.8 +24.8 75 +43 +43 опасность
перегрева
1007.6 1006.9 +34.0 0.2
штиль 0 10 км гроза без осадков 8/1 600 м
[Cb cap Ac lent Cs]
+27.7 +24.7 84 +39 +39 очень
душно
1009.6 1008.9
штиль 0 10 км {гроза} 8/1 600 м
[Cu hum Ac lent Cs]
+26.7 +24.5 88 +38 +38 очень
душно
1009.0 1008.3 0.2
штиль 0 10 км 8/1 600 м
[Cu hum Ac lent Cs]
+26.2 +24.9 93 +37 +37 очень
душно
1007.8 1007.1
штиль 0 10 км 8/1 600 м
[Cu hum Ac cuf Cs]
+26.5 +24.9 91 +38 +39 очень
душно
1008.3 1007.6 +25.6
З 3 10 км 8/1 600 м
[Cu hum Ac lent Cs]
+31.4 +24.7 68 +45 +51 опасность
перегрева
1009.7 1009.0
ЮЗ 3 10 км 8/1 600 м
[Cu hum Ac lent Cs]
+33.6 +23.7 56 +45 +54 опасность
перегрева
1007.7 1007.0
З 6 10 км 8/1 600 м
[Cu hum Ac lent Cs]
+34.2 +24.4 57 +47 +49 опасность
перегрева
1005.8 1005.2
СЗ 3 8000 м гроза, ливневой дождь 8/3 300 м
[Cb cap Ac lent Cs]
+28.3 +26.5 90 +44 +44 опасность
перегрева
1007.0 1006.3 +34.4 5 5.0
СЗ 3 10 км {гроза} 8/1 600 м
[Cu hum Ac lent Cs]
+27.0 +25.9 94 +40 +40 очень
душно
1008.6 1007.9 0.1
штиль 0 10 км {гроза} 8/1 600 м
[Cu hum Ac lent Cs]
+27.1 +26.0 94 +41 +41 опасность
перегрева
1007.5 1006.8 5 5.1
З 6 10 км 8/1 600 м
[Cu hum Ac lent Cs]
+26.3 +25.4 95 +38 +38 очень
душно
1006.3 1005.6
З 3 10 км 8/1 600 м
[Cu hum Ac lent Cs]
+27.3 +25.4 89 +40 +40 очень
душно
1007.1 1006.4 +24.9 5.1
штиль 0 10 км 6/1 600 м
[Cu hum Ac lent Cs]
+30.5 +25.0 73 +44 +57 опасность
перегрева
1008.4 1007.7
З 5 10 км 6/1 600 м
[Cu hum Ac lent Cs]
+33.0 +24.9 63 +47 +54 опасность
перегрева
1007.0 1006.3 5.1
З 10 8000 м слаб. дождь 8/3 300 м
[Cb cap Ac As Cs]
+30.5 +23.6 67 +42 +42 опасность
перегрева
1006.5 1005.9 0.0
З 5 10 км {гроза, дождь} 8/1 600 м
[Cu hum Ac lent Cs]
+26.0 +24.3 90 +36 +36 очень
душно
1006.9 1006.2 +33.4 3 2.8
З 5 10 км 8/1 600 м
[Cu hum Ac trans Cs]
+26.6 +24.4 88 +37 +37 очень
душно
1008.1 1007.4
штиль 0 10 км 8/1 600 м
[Cu hum Ac lent Cs]
+26.4 +24.4 89 +37 +37 очень
душно
1008.2 1007.5 2.7
штиль 0 10 км 8/1 600 м
[Cu hum Cs]
+26.1 +23.8 87 +36 +36 очень
душно
1007.8 1007.1
З 3 10 км 8/1 600 м
[Cu hum Ac lent Cs]
+26.5 +24.9 91 +38 +38 очень
душно
1008.2 1007.5 +25.2 2.7
З 3 10 км 8/1 600 м
[Cu hum Ac lent Cs]
+30.1 +25.0 74 +43 +50 опасность
перегрева
1009.4 1008.7
ЮВ 7 10 км 8/3 600 м
[Cu hum Ac lent Cs]
+30.5 +24.0 68 +42 +45 опасность
перегрева
1008.6 1007.9 2.7
З 3 8000 м гроза, ливневой дождь 8/1 300 м
[Cb cap Ac lent Cs]
+27.4 +22.2 73 +36 +39 очень
душно
1008.0 1007.3 0.3
штиль 0 8000 м слаб. дождь {гроза} 9/1 300 м
[Cb calv Ac cuf Cs]
+26.0 +24.6 92 +37 +37 очень
душно
1008.6 1007.9 +33.5 0.5 0.8
СЗ 4 9000 м дымка {дождь} 8/1 <50 м
[Cu med, cong Ac lent Cs]
+25.4 +24.8 96 +36 +36 очень
душно
1009.5 1008.8 0.6
СЗ 3 9000 м дымка {дождь} 9/1 600 м
[Cu med, cong Ac lent Cs]
+26.0 +25.4 97 +38 +38 очень
душно
1010.0 1009.3 1 1.4
СЗ 3 9000 м дымка 8/1 600 м
[Cu med, cong Ac lent Cs]
+26.0 +25.4 97 +38 +38 очень
душно
1008.9 1008.2
штиль 0 9000 м дымка 9/1 600 м
[Cu med, cong Ac cuf Cs]
+26.5 +25.6 95 +39 +40 очень
душно
1009.9 1009.2 +24.9 1.4
штиль 0 9000 м слаб. дождь 8/1 600 м
[Cu med, cong Ac lent Cs]
+28.4 +26.7 91 +44 +55 опасность
перегрева
1010.6 1009.9 0.2
штиль 0 9000 м слаб. дождь 8/1 600 м
[Cu med, cong Ac lent Cs]
+29.0 +26.2 85 +44 +59 опасность
перегрева
1009.6 1008.9 0.3 1.9
штиль 0 10 км {дождь} 8/1 600 м
[Cu med, cong Ac lent Cs]
+30.0 +26.1 80 +45 +51 опасность
перегрева
1007.7 1007.0 0.0
штиль 0 10 км {дождь} 8/1 600 м
[Cu hum Ac lent Cs]
+28.3 +25.0 82 +41 +41 опасность
перегрева
1007.6 1006.9 +30.3 0.0 1.1
штиль 0 10 км 8/1 600 м
[Cu hum Ac lent Cs]
+26.7 +24.5 88 +38 +38 очень
душно
1009.8 1009.1
штиль 0 8000 м дымка 8/1 600 м
[Cu hum Ac lent Cs]
+26.5 +24.8 90 +38 +38 очень
душно
1009.9 1009.2 0.5
СЗ 3 8000 м дымка 8/1 600 м
[Cu hum Ac lent Cs]
+26.3 +24.7 91 +37 +37 очень
душно
1008.5 1007.8
штиль 0 10 км 8/1 600 м
[Cu hum Ac lent Cs]
+26.3 +24.9 92 +38 +38 очень
душно
1008.5 1007.8 +25.2 0.5
штиль 0 9000 м слаб. ливневой дождь, в посл. час гроза 8/1 600 м
[Cb cap Ac lent Cs]
+28.7 +25.6 83 +42 +53 опасность
перегрева
1009.6 1008.9 0.1
В 4 10 км {гроза, дождь} 8/1 600 м
[Cu med, cong Ac lent Cs]
+30.3 +26.4 80 +46 +54 опасность
перегрева
1008.3 1007.6 0.0 0.1
В 8 10 км 6/1 600 м
[Cu med, cong Ac lent Cs]
+29.7 +25.5 78 +44 +44 опасность
перегрева
1006.1 1005.5
Местоположение метеостанции Самуи (Таиланд): широта 9.47 долгота 100.05 высота над уровнем моря 7 м.
В архиве по умолчанию представлена погода в Самуи за последнюю неделю. Архивные данные за месяц целиком и за предыдущие месяцы, начиная с января 2011 года, Вы можете получить, выбрав интересующий диапазон дат из раскрывающегося списка и нажав кнопку "Найти!".
*Определитесь, кто Вы:
Внимание! Время в таблицах - всемирное. Для получения местного времени необходимо прибавить поправку, которая равна 7 ч.
Смотрите также архив погоды в соседних городах и на ближайших метеорологических станциях:
Партнеры нашего сайта:      
Пояснения к столбцам:
  • Ветер - указаны скорость ветра в м/с - средняя за 10 мин, порывы в срок и между сроками (в фигурных скобках) и направление, откуда дует ветер: С - северный,
  • СВ - северо-восточный, В - восточный, ЮВ - юго-восточный, Ю - южный, ЮЗ - юго-западный, З - западный, СЗ - северо-западный.
  • Видимость - горизонтальная дальность видимости в метрах или километрах. При видимости от 1 до 10 км при отсутствии осадков обычно наблюдается дымка, при ухудшении видимости до 1 км и менее - туман. В сухую погоду видимость может ухудшаться дымом, пылью или мглою.
  • Явления - указаны атмосферные явления, наблюдавшиеся в срок или в последний час перед сроком; фигурными скобками обозначены явления, наблюдавшиеся между сроками (за 1-3 часа до срока); квадратными скобками обозначены град или гололедные отложения с указанием их диаметра в мм.
  • Облачность - указаны через наклонную черту общая и нижняя облачность в баллах и высота нижней границы облаков в метрах; квадратными скобками обозначены формы облаков: Ci - перистые, Cs - перисто-слоистые, Cc - перисто-кучевые, Ac - высококучевые, As - высокослоистые, Sc - слоисто-кучевые, Ns - слоисто-дождевые, Cu - кучевые, Cb - кучево-дождевые. Подробнее классификацию облаков см. в Атласе облаков (PDF).
  • T - Температура воздуха - температура, измеренная на высоте 2 м над землей.
  • Td - Температура точки росы - температура, при понижении до которой содержащийся в воздухе водяной пар достигнет насыщения.
  • f - Относительная влажность воздуха - влажноcть воздуха, измеренная на высоте 2 м над землей.
  • Te - Эффективная температура - температура, которую ощущает одетый по сезону человек в тени. Характеристика душности погоды. При расчете учитывается влияние влажности воздуха и скорости ветра на теплоощущения человека.
  • Tes - Эффективная температура на солнце - температура, которую ощущает человек, с поправкой на солнечный нагрев. Характеристика знойности погоды. Зависит от высоты солнца над горизонтом, облачности и скорости ветра. Ночью, в пасмурную погоду, а также при ветре 12 м/с и более поправка равна нулю.
  • P - Атмосферное давление - приведенное к уровню моря атмосферное давление.
  • Po - Атмосферное давление - измеренное на уровне метеостанции атмосферное давление.
  • Tmin - Минимальная температура - минимум температуры воздуха на высоте 2 м над землей.
  • Tmax - Максимальная температура - максимум температуры воздуха на высоте 2 м над землей.
  • R - Количество осадков - Количество выпавших осадков за период времени, мм. При наведении курсора мыши на число - период времени, за который выпало указанное количество осадков.
  • R24 - Количество осадков - Количество выпавших осадков за 24 часа, мм.
  • S - Снежный покров - Высота снежного покрова, см. При наведении курсора мыши на число - состояние снежного покрова и степень покрытия местности в баллах.